Time,TemperatureF,DewpointF,PressureIn,WindDirection,WindDirectionDegrees,WindSpeedMPH,WindSpeedGustMPH,Humidity,HourlyPrecipIn,Conditions,Clouds,dailyrainin,SoftwareType,DateUTC
2013-05-02 00:03:00,56.9,52.1,30.09,SE,126,0.0,1.0,84,0.00,,,0.00,Wunderground v.1.15,2013-05-02 05:03:00,
2013-05-02 00:09:00,56.8,52.0,30.08,ESE,123,1.0,4.0,84,0.00,,,0.00,Wunderground v.1.15,2013-05-02 05:09:00,
2013-05-02 00:14:00,56.7,51.9,30.08,SE,125,1.0,3.0,84,0.00,,,0.00,Wunderground v.1.15,2013-05-02 05:14:00,
2013-05-02 00:20:00,56.6,52.1,30.08,ESE,104,0.0,2.0,85,0.00,,,0.00,Wunderground v.1.15,2013-05-02 05:20:00,
2013-05-02 00:25:00,56.5,52.0,30.08,NNE,26,0.0,2.0,85,0.00,,,0.00,Wunderground v.1.15,2013-05-02 05:25:00,
2013-05-02 00:30:00,56.4,51.9,30.08,ESE,113,0.0,1.0,85,0.00,,,0.00,Wunderground v.1.15,2013-05-02 05:30:00,
2013-05-02 00:36:00,56.3,51.8,30.08,East,88,0.0,2.0,85,0.00,,,0.00,Wunderground v.1.15,2013-05-02 05:36:00,
2013-05-02 00:42:00,56.2,51.7,30.08,South,172,2.0,2.0,85,0.00,,,0.00,Wunderground v.1.15,2013-05-02 05:42:00,
2013-05-02 00:47:00,56.1,51.7,30.08,SSE,150,1.0,2.0,85,0.00,,,0.00,Wunderground v.1.15,2013-05-02 05:47:00,
2013-05-02 00:53:00,56.0,51.6,30.08,ESE,109,0.0,2.0,85,0.00,,,0.00,Wunderground v.1.15,2013-05-02 05:53:00,
2013-05-02 00:59:00,55.9,51.5,30.08,SSE,161,0.0,2.0,85,0.00,,,0.00,Wunderground v.1.15,2013-05-02 05:59:00,
2013-05-02 01:04:00,55.7,51.3,30.08,SE,138,2.0,2.0,85,0.00,,,0.00,Wunderground v.1.15,2013-05-02 06:04:00,
2013-05-02 01:10:00,55.6,51.5,30.08,SSE,161,0.0,1.0,86,0.00,,,0.00,Wunderground v.1.15,2013-05-02 06:10:00,
2013-05-02 01:16:00,55.6,51.5,30.08,East,100,0.0,2.0,86,0.00,,,0.00,Wunderground v.1.15,2013-05-02 06:16:00,
2013-05-02 01:21:00,55.5,51.1,30.07,ESE,109,3.0,3.0,85,0.00,,,0.00,Wunderground v.1.15,2013-05-02 06:21:00,
2013-05-02 01:26:00,55.5,51.1,30.07,SSE,162,0.0,3.0,85,0.00,,,0.00,Wunderground v.1.15,2013-05-02 06:26:00,
2013-05-02 01:32:00,55.5,51.1,30.07,East,98,2.0,3.0,85,0.00,,,0.00,Wunderground v.1.15,2013-05-02 06:32:00,
2013-05-02 01:38:00,55.4,51.0,30.07,SE,139,3.0,3.0,85,0.00,,,0.00,Wunderground v.1.15,2013-05-02 06:38:00,
2013-05-02 01:43:00,55.4,51.0,30.07,South,171,0.0,2.0,85,0.00,,,0.00,Wunderground v.1.15,2013-05-02 06:43:00,
2013-05-02 01:49:00,55.3,50.9,30.07,South,189,1.0,3.0,85,0.00,,,0.00,Wunderground v.1.15,2013-05-02 06:49:00,
2013-05-02 01:54:00,55.3,50.9,30.06,SE,146,0.0,2.0,85,0.00,,,0.00,Wunderground v.1.15,2013-05-02 06:54:00,
2013-05-02 02:00:00,55.3,50.9,30.06,SE,138,0.0,1.0,85,0.00,,,0.00,Wunderground v.1.15,2013-05-02 07:00:00,
2013-05-02 02:05:00,55.3,50.9,30.06,NE,43,0.0,5.0,85,0.00,,,0.00,Wunderground v.1.15,2013-05-02 07:05:00,
2013-05-02 02:10:00,55.3,50.9,30.06,SSE,163,1.0,4.0,85,0.00,,,0.00,Wunderground v.1.15,2013-05-02 07:10:00,
2013-05-02 02:15:00,55.3,50.5,30.06,SW,215,0.0,7.0,84,0.00,,,0.00,Wunderground v.1.15,2013-05-02 07:15:00,
2013-05-02 02:20:00,55.3,50.5,30.06,South,184,4.0,7.0,84,0.00,,,0.00,Wunderground v.1.15,2013-05-02 07:20:00,
2013-05-02 02:25:00,55.3,50.5,30.06,SSE,157,0.0,7.0,84,0.00,,,0.00,Wunderground v.1.15,2013-05-02 07:25:00,
2013-05-02 02:30:00,55.4,50.6,30.06,West,275,2.0,4.0,84,0.00,,,0.00,Wunderground v.1.15,2013-05-02 07:30:00,
2013-05-02 02:35:00,55.4,50.6,30.06,SE,145,5.0,7.0,84,0.00,,,0.00,Wunderground v.1.15,2013-05-02 07:35:00,
2013-05-02 02:40:00,55.4,50.6,30.06,SSE,163,1.0,2.0,84,0.00,,,0.00,Wunderground v.1.15,2013-05-02 07:40:00,
2013-05-02 02:45:00,55.3,50.5,30.06,SE,128,3.0,5.0,84,0.00,,,0.00,Wunderground v.1.15,2013-05-02 07:45:00,
2013-05-02 02:51:00,55.3,50.5,30.06,SE,135,1.0,3.0,84,0.00,,,0.00,Wunderground v.1.15,2013-05-02 07:51:00,
2013-05-02 02:56:00,55.2,50.4,30.06,East,94,1.0,5.0,84,0.00,,,0.00,Wunderground v.1.15,2013-05-02 07:56:00,
2013-05-02 03:01:00,55.1,50.4,30.06,ESE,103,1.0,3.0,84,0.00,,,0.00,Wunderground v.1.15,2013-05-02 08:01:00,
2013-05-02 03:06:00,55.1,50.4,30.06,ENE,75,1.0,5.0,84,0.00,,,0.00,Wunderground v.1.15,2013-05-02 08:06:00,
2013-05-02 03:11:00,55.1,50.4,30.07,SE,130,0.0,7.0,84,0.00,,,0.00,Wunderground v.1.15,2013-05-02 08:11:00,
2013-05-02 03:16:00,55.2,50.4,30.06,SE,125,1.0,7.0,84,0.00,,,0.00,Wunderground v.1.15,2013-05-02 08:16:00,
2013-05-02 03:21:00,55.1,50.4,30.07,ESE,121,1.0,3.0,84,0.00,,,0.00,Wunderground v.1.15,2013-05-02 08:21:00,
2013-05-02 03:26:00,55.1,50.4,30.07,SSE,155,0.0,3.0,84,0.00,,,0.00,Wunderground v.1.15,2013-05-02 08:26:00,
2013-05-02 03:31:00,55.0,50.3,30.07,ESE,112,0.0,2.0,84,0.00,,,0.00,Wunderground v.1.15,2013-05-02 08:31:00,
2013-05-02 03:36:00,54.9,50.2,30.07,East,94,2.0,3.0,84,0.00,,,0.00,Wunderground v.1.15,2013-05-02 08:36:00,
2013-05-02 03:41:00,54.8,50.4,30.07,SE,136,2.0,2.0,85,0.00,,,0.00,Wunderground v.1.15,2013-05-02 08:41:00,
2013-05-02 03:46:00,54.7,50.3,30.07,ESE,107,0.0,3.0,85,0.00,,,0.00,Wunderground v.1.15,2013-05-02 08:46:00,
2013-05-02 03:51:00,54.6,50.2,30.07,SE,128,0.0,1.0,85,0.00,,,0.00,Wunderground v.1.15,2013-05-02 08:51:00,
2013-05-02 03:56:00,54.4,50.3,30.07,WSW,246,0.0,2.0,86,0.00,,,0.00,Wunderground v.1.15,2013-05-02 08:56:00,
2013-05-02 04:01:00,54.3,50.2,30.07,SE,130,0.0,1.0,86,0.00,,,0.00,Wunderground v.1.15,2013-05-02 09:01:00,
2013-05-02 04:06:00,54.2,50.1,30.07,SE,126,2.0,5.0,86,0.00,,,0.00,Wunderground v.1.15,2013-05-02 09:06:00,
2013-05-02 04:11:00,54.1,50.3,30.07,SE,128,0.0,3.0,87,0.00,,,0.00,Wunderground v.1.15,2013-05-02 09:11:00,
2013-05-02 04:16:00,53.9,50.1,30.07,East,96,0.0,3.0,87,0.00,,,0.00,Wunderground v.1.15,2013-05-02 09:16:00,
2013-05-02 04:21:00,53.7,49.9,30.07,SE,125,1.0,1.0,87,0.00,,,0.00,Wunderground v.1.15,2013-05-02 09:21:00,
2013-05-02 04:26:00,53.6,50.1,30.07,SE,131,0.0,3.0,88,0.00,,,0.00,Wunderground v.1.15,2013-05-02 09:26:00,
2013-05-02 04:31:00,53.4,49.9,30.07,SE,132,0.0,2.0,88,0.00,,,0.00,Wunderground v.1.15,2013-05-02 09:31:00,
2013-05-02 04:36:00,53.3,49.8,30.07,ENE,57,2.0,4.0,88,0.00,,,0.00,Wunderground v.1.15,2013-05-02 09:36:00,
2013-05-02 04:41:00,53.2,50.0,30.06,ESE,104,3.0,5.0,89,0.00,,,0.00,Wunderground v.1.15,2013-05-02 09:41:00,
2013-05-02 04:46:00,53.2,50.0,30.07,East,92,1.0,5.0,89,0.00,,,0.00,Wunderground v.1.15,2013-05-02 09:46:00,
2013-05-02 04:51:00,53.0,49.8,30.07,ESE,115,2.0,5.0,89,0.00,,,0.00,Wunderground v.1.15,2013-05-02 09:51:00,
2013-05-02 04:56:00,53.0,49.8,30.07,SE,132,1.0,5.0,89,0.00,,,0.00,Wunderground v.1.15,2013-05-02 09:56:00,
2013-05-02 05:01:00,52.9,49.7,30.07,SSE,153,1.0,2.0,89,0.00,,,0.00,Wunderground v.1.15,2013-05-02 10:01:00,
2013-05-02 05:06:00,52.8,49.6,30.06,ESE,110,0.0,5.0,89,0.00,,,0.00,Wunderground v.1.15,2013-05-02 10:06:00,
2013-05-02 05:11:00,52.8,49.6,30.07,SSE,154,2.0,2.0,89,0.00,,,0.00,Wunderground v.1.15,2013-05-02 10:11:00,
2013-05-02 05:16:00,52.7,49.8,30.06,South,181,0.0,3.0,90,0.00,,,0.00,Wunderground v.1.15,2013-05-02 10:16:00,
2013-05-02 05:21:00,52.7,49.8,30.06,SSE,156,1.0,4.0,90,0.00,,,0.00,Wunderground v.1.15,2013-05-02 10:21:00,
2013-05-02 05:26:00,52.5,49.7,30.07,South,186,1.0,4.0,90,0.00,,,0.00,Wunderground v.1.15,2013-05-02 10:26:00,
2013-05-02 05:31:00,52.4,49.6,30.07,SW,225,0.0,6.0,90,0.00,,,0.00,Wunderground v.1.15,2013-05-02 10:31:00,
2013-05-02 05:36:00,52.3,49.5,30.06,SE,143,0.0,7.0,90,0.00,,,0.00,Wunderground v.1.15,2013-05-02 10:36:00,
2013-05-02 05:41:00,52.4,49.6,30.06,SE,134,0.0,2.0,90,0.00,,,0.00,Wunderground v.1.15,2013-05-02 10:41:00,
2013-05-02 05:46:00,52.4,49.6,30.06,SSE,150,2.0,4.0,90,0.00,,,0.00,Wunderground v.1.15,2013-05-02 10:46:00,
2013-05-02 05:51:00,52.5,49.7,30.06,ESE,122,3.0,4.0,90,0.00,,,0.00,Wunderground v.1.15,2013-05-02 10:51:00,
2013-05-02 05:56:00,52.6,49.8,30.07,ESE,116,2.0,4.0,90,0.00,,,0.00,Wunderground v.1.15,2013-05-02 10:56:00,
2013-05-02 06:01:00,52.6,49.8,30.07,ESE,111,1.0,6.0,90,0.00,,,0.00,Wunderground v.1.15,2013-05-02 11:01:00,
2013-05-02 06:06:00,52.6,49.8,30.07,SE,143,4.0,7.0,90,0.00,,,0.00,Wunderground v.1.15,2013-05-02 11:06:00,
2013-05-02 06:11:00,52.6,49.8,30.07,SE,132,2.0,7.0,90,0.00,,,0.00,Wunderground v.1.15,2013-05-02 11:11:00,
2013-05-02 06:16:00,52.6,49.8,30.07,SE,129,2.0,7.0,90,0.00,,,0.00,Wunderground v.1.15,2013-05-02 11:16:00,
2013-05-02 06:21:00,52.6,49.8,30.07,ESE,108,1.0,4.0,90,0.00,,,0.00,Wunderground v.1.15,2013-05-02 11:21:00,
2013-05-02 06:27:00,52.6,49.8,30.07,SE,131,0.0,4.0,90,0.00,,,0.00,Wunderground v.1.15,2013-05-02 11:27:00,
2013-05-02 06:31:00,52.7,49.8,30.07,SSE,157,0.0,5.0,90,0.00,,,0.00,Wunderground v.1.15,2013-05-02 11:31:00,
2013-05-02 06:37:00,52.9,49.7,30.07,ESE,122,2.0,5.0,89,0.00,,,0.00,Wunderground v.1.15,2013-05-02 11:37:00,
2013-05-02 06:42:00,53.0,49.5,30.07,East,95,1.0,4.0,88,0.00,,,0.00,Wunderground v.1.15,2013-05-02 11:42:00,
2013-05-02 06:47:00,53.1,49.6,30.07,SSE,165,3.0,7.0,88,0.00,,,0.00,Wunderground v.1.15,2013-05-02 11:47:00,
2013-05-02 06:52:00,53.1,49.6,30.07,ESE,117,1.0,3.0,88,0.00,,,0.00,Wunderground v.1.15,2013-05-02 11:52:00,
2013-05-02 06:57:00,53.3,49.8,30.08,WSW,256,0.0,10.0,88,0.00,,,0.00,Wunderground v.1.15,2013-05-02 11:57:00,
2013-05-02 07:02:00,53.5,50.0,30.08,ESE,109,2.0,5.0,88,0.00,,,0.00,Wunderground v.1.15,2013-05-02 12:02:00,
2013-05-02 07:07:00,53.6,50.1,30.08,East,85,1.0,5.0,88,0.00,,,0.00,Wunderground v.1.15,2013-05-02 12:07:00,
2013-05-02 07:12:00,53.8,50.3,30.08,SSE,167,0.0,5.0,88,0.00,,,0.00,Wunderground v.1.15,2013-05-02 12:12:00,
2013-05-02 07:17:00,54.1,50.3,30.08,South,180,2.0,5.0,87,0.00,,,0.00,Wunderground v.1.15,2013-05-02 12:17:00,
2013-05-02 07:22:00,54.5,50.7,30.08,WSW,253,2.0,8.0,87,0.00,,,0.00,Wunderground v.1.15,2013-05-02 12:22:00,
2013-05-02 07:27:00,54.9,50.8,30.08,SSW,208,1.0,8.0,86,0.00,,,0.00,Wunderground v.1.15,2013-05-02 12:27:00,
2013-05-02 07:32:00,55.2,51.1,30.09,SSE,148,0.0,3.0,86,0.00,,,0.00,Wunderground v.1.15,2013-05-02 12:32:00,
2013-05-02 07:37:00,55.5,51.4,30.09,SSW,197,1.0,4.0,86,0.00,,,0.00,Wunderground v.1.15,2013-05-02 12:37:00,
2013-05-02 07:42:00,55.7,51.6,30.09,ESE,103,1.0,2.0,86,0.00,,,0.00,Wunderground v.1.15,2013-05-02 12:42:00,
2013-05-02 07:47:00,55.8,51.4,30.09,East,92,1.0,4.0,85,0.00,,,0.00,Wunderground v.1.15,2013-05-02 12:47:00,
2013-05-02 07:52:00,56.0,51.2,30.10,East,86,0.0,4.0,84,0.00,,,0.00,Wunderground v.1.15,2013-05-02 12:52:00,
2013-05-02 07:57:00,56.2,51.4,30.10,SE,125,3.0,4.0,84,0.00,,,0.00,Wunderground v.1.15,2013-05-02 12:57:00,
2013-05-02 08:02:00,56.3,51.5,30.10,SE,132,1.0,2.0,84,0.00,,,0.00,Wunderground v.1.15,2013-05-02 13:02:00,
2013-05-02 08:07:00,56.3,51.5,30.10,ESE,111,3.0,4.0,84,0.00,,,0.00,Wunderground v.1.15,2013-05-02 13:07:00,
2013-05-02 08:12:00,56.4,51.3,30.10,South,169,0.0,5.0,83,0.00,,,0.00,Wunderground v.1.15,2013-05-02 13:12:00,
2013-05-02 08:17:00,56.4,51.6,30.11,SE,134,0.0,5.0,84,0.00,,,0.00,Wunderground v.1.15,2013-05-02 13:17:00,
2013-05-02 08:22:00,56.6,51.8,30.11,WNW,295,1.0,2.0,84,0.00,,,0.00,Wunderground v.1.15,2013-05-02 13:22:00,
2013-05-02 08:27:00,56.8,52.3,30.11,SW,225,0.0,2.0,85,0.00,,,0.00,Wunderground v.1.15,2013-05-02 13:27:00,
2013-05-02 08:32:00,56.9,52.1,30.11,SE,136,0.0,5.0,84,0.00,,,0.00,Wunderground v.1.15,2013-05-02 13:32:00,
2013-05-02 08:37:00,57.1,52.6,30.11,SE,128,0.0,5.0,85,0.00,,,0.00,Wunderground v.1.15,2013-05-02 13:37:00,
2013-05-02 08:42:00,57.4,52.6,30.10,SE,138,0.0,6.0,84,0.00,,,0.00,Wunderground v.1.15,2013-05-02 13:42:00,
2013-05-02 08:47:00,57.7,52.9,30.11,ESE,120,4.0,9.0,84,0.00,,,0.00,Wunderground v.1.15,2013-05-02 13:47:00,
2013-05-02 08:52:00,57.9,53.1,30.11,ESE,119,0.0,4.0,84,0.00,,,0.00,Wunderground v.1.15,2013-05-02 13:52:00,
2013-05-02 08:57:00,58.1,53.3,30.11,SE,146,1.0,4.0,84,0.00,,,0.00,Wunderground v.1.15,2013-05-02 13:57:00,
2013-05-02 09:02:00,58.3,53.2,30.11,ESE,106,2.0,7.0,83,0.00,,,0.00,Wunderground v.1.15,2013-05-02 14:02:00,
2013-05-02 09:07:00,58.5,53.4,30.11,SE,140,2.0,7.0,83,0.00,,,0.00,Wunderground v.1.15,2013-05-02 14:07:00,
2013-05-02 09:12:00,58.7,53.2,30.11,South,176,0.0,3.0,82,0.00,,,0.00,Wunderground v.1.15,2013-05-02 14:12:00,
2013-05-02 09:17:00,58.9,53.7,30.11,SE,132,1.0,3.0,83,0.00,,,0.00,Wunderground v.1.15,2013-05-02 14:17:00,
2013-05-02 09:22:00,59.1,53.6,30.11,ESE,109,3.0,7.0,82,0.00,,,0.00,Wunderground v.1.15,2013-05-02 14:22:00,
2013-05-02 09:27:00,59.3,53.8,30.11,SSE,166,0.0,7.0,82,0.00,,,0.00,Wunderground v.1.15,2013-05-02 14:27:00,
2013-05-02 09:32:00,59.4,53.9,30.11,SE,144,0.0,1.0,82,0.00,,,0.00,Wunderground v.1.15,2013-05-02 14:32:00,
2013-05-02 09:37:00,59.5,53.7,30.11,South,169,3.0,5.0,81,0.00,,,0.00,Wunderground v.1.15,2013-05-02 14:37:00,
2013-05-02 09:42:00,59.5,53.7,30.12,East,86,0.0,2.0,81,0.00,,,0.00,Wunderground v.1.15,2013-05-02 14:42:00,
2013-05-02 09:47:00,59.4,53.6,30.12,East,98,3.0,7.0,81,0.00,,,0.00,Wunderground v.1.15,2013-05-02 14:47:00,
2013-05-02 09:52:00,59.4,53.9,30.12,ESE,123,1.0,5.0,82,0.00,,,0.00,Wunderground v.1.15,2013-05-02 14:52:00,
2013-05-02 09:57:00,59.5,53.7,30.12,South,171,0.0,7.0,81,0.00,,,0.00,Wunderground v.1.15,2013-05-02 14:57:00,
2013-05-02 10:02:00,59.8,54.3,30.12,ESE,105,0.0,2.0,82,0.00,,,0.00,Wunderground v.1.15,2013-05-02 15:02:00,
2013-05-02 10:07:00,60.2,54.3,30.12,ESE,111,1.0,4.0,81,0.00,,,0.00,Wunderground v.1.15,2013-05-02 15:07:00,
2013-05-02 10:12:00,60.6,54.4,30.12,SE,131,2.0,5.0,80,0.00,,,0.00,Wunderground v.1.15,2013-05-02 15:12:00,
2013-05-02 10:17:00,60.9,54.7,30.12,ESE,109,0.0,8.0,80,0.00,,,0.00,Wunderground v.1.15,2013-05-02 15:17:00,
2013-05-02 10:23:00,61.6,55.4,30.12,SE,143,1.0,5.0,80,0.00,,,0.00,Wunderground v.1.15,2013-05-02 15:23:00,
2013-05-02 10:28:00,62.3,55.7,30.12,ENE,76,0.0,9.0,79,0.00,,,0.00,Wunderground v.1.15,2013-05-02 15:28:00,
2013-05-02 10:33:00,62.7,55.4,30.12,ESE,111,3.0,6.0,77,0.00,,,0.00,Wunderground v.1.15,2013-05-02 15:33:00,
2013-05-02 10:38:00,63.1,55.8,30.12,ESE,105,0.0,6.0,77,0.00,,,0.00,Wunderground v.1.15,2013-05-02 15:38:00,
2013-05-02 10:43:00,63.6,55.5,30.12,SE,134,0.0,5.0,75,0.00,,,0.00,Wunderground v.1.15,2013-05-02 15:43:00,
2013-05-02 10:48:00,64.1,56.0,30.13,SSE,155,0.0,7.0,75,0.00,,,0.00,Wunderground v.1.15,2013-05-02 15:48:00,
2013-05-02 10:53:00,64.4,55.9,30.13,SE,127,1.0,3.0,74,0.00,,,0.00,Wunderground v.1.15,2013-05-02 15:53:00,
2013-05-02 10:58:00,64.4,55.9,30.13,SE,137,2.0,6.0,74,0.00,,,0.00,Wunderground v.1.15,2013-05-02 15:58:00,
2013-05-02 11:03:00,64.5,56.0,30.13,NNE,32,2.0,6.0,74,0.00,,,0.00,Wunderground v.1.15,2013-05-02 16:03:00,
2013-05-02 11:08:00,64.5,56.0,30.13,SE,140,0.0,6.0,74,0.00,,,0.00,Wunderground v.1.15,2013-05-02 16:08:00,
2013-05-02 11:13:00,64.6,55.7,30.13,ESE,103,0.0,4.0,73,0.00,,,0.00,Wunderground v.1.15,2013-05-02 16:13:00,
2013-05-02 11:18:00,64.7,56.2,30.13,SE,127,1.0,7.0,74,0.00,,,0.00,Wunderground v.1.15,2013-05-02 16:18:00,
2013-05-02 11:23:00,64.9,56.4,30.13,East,92,1.0,3.0,74,0.00,,,0.00,Wunderground v.1.15,2013-05-02 16:23:00,
2013-05-02 11:28:00,65.0,56.1,30.13,SE,143,2.0,5.0,73,0.00,,,0.00,Wunderground v.1.15,2013-05-02 16:28:00,
2013-05-02 11:33:00,65.2,56.7,30.13,East,80,1.0,5.0,74,0.00,,,0.00,Wunderground v.1.15,2013-05-02 16:33:00,
2013-05-02 11:38:00,65.4,56.9,30.13,ESE,105,1.0,5.0,74,0.00,,,0.00,Wunderground v.1.15,2013-05-02 16:38:00,
2013-05-02 11:43:00,65.5,56.2,30.13,ENE,61,1.0,2.0,72,0.00,,,0.00,Wunderground v.1.15,2013-05-02 16:43:00,
2013-05-02 11:48:00,65.5,56.2,30.12,East,101,1.0,2.0,72,0.00,,,0.00,Wunderground v.1.15,2013-05-02 16:48:00,
2013-05-02 11:53:00,66.1,57.2,30.12,SSE,167,1.0,7.0,73,0.00,,,0.00,Wunderground v.1.15,2013-05-02 16:53:00,
2013-05-02 11:58:00,66.5,56.8,30.12,SW,219,0.0,7.0,71,0.00,,,0.00,Wunderground v.1.15,2013-05-02 16:58:00,
2013-05-02 12:03:00,66.5,57.6,30.12,SE,143,2.0,4.0,73,0.00,,,0.00,Wunderground v.1.15,2013-05-02 17:03:00,
2013-05-02 12:08:00,66.6,56.5,30.12,NE,38,1.0,9.0,70,0.00,,,0.00,Wunderground v.1.15,2013-05-02 17:08:00,
2013-05-02 12:13:00,66.5,56.8,30.11,NE,55,1.0,9.0,71,0.00,,,0.00,Wunderground v.1.15,2013-05-02 17:13:00,
2013-05-02 12:18:00,66.6,56.9,30.11,ENE,60,3.0,9.0,71,0.00,,,0.00,Wunderground v.1.15,2013-05-02 17:18:00,
2013-05-02 12:23:00,67.2,58.2,30.11,SSE,158,4.0,5.0,73,0.00,,,0.00,Wunderground v.1.15,2013-05-02 17:23:00,
2013-05-02 12:28:00,68.6,58.8,30.11,ESE,113,5.0,8.0,71,0.00,,,0.00,Wunderground v.1.15,2013-05-02 17:28:00,
2013-05-02 12:34:00,69.6,58.6,30.11,East,90,3.0,8.0,68,0.00,,,0.00,Wunderground v.1.15,2013-05-02 17:34:00,
2013-05-02 12:39:00,70.3,58.0,30.11,SE,137,0.0,8.0,65,0.00,,,0.00,Wunderground v.1.15,2013-05-02 17:39:00,
2013-05-02 12:44:00,70.4,57.2,30.11,NE,34,2.0,4.0,63,0.00,,,0.00,Wunderground v.1.15,2013-05-02 17:44:00,
2013-05-02 12:49:00,70.2,57.9,30.10,ESE,113,3.0,5.0,65,0.00,,,0.00,Wunderground v.1.15,2013-05-02 17:49:00,
2013-05-02 12:54:00,69.8,57.1,30.10,SE,144,1.0,10.0,64,0.00,,,0.00,Wunderground v.1.15,2013-05-02 17:54:00,
2013-05-02 12:59:00,69.7,57.4,30.10,ESE,102,0.0,10.0,65,0.00,,,0.00,Wunderground v.1.15,2013-05-02 17:59:00,
2013-05-02 13:04:00,69.9,58.4,30.10,NE,36,1.0,5.0,67,0.00,,,0.00,Wunderground v.1.15,2013-05-02 18:04:00,
2013-05-02 13:09:00,70.2,57.9,30.10,ESE,115,5.0,9.0,65,0.00,,,0.00,Wunderground v.1.15,2013-05-02 18:09:00,
2013-05-02 13:14:00,70.6,57.8,30.10,NE,49,4.0,6.0,64,0.00,,,0.00,Wunderground v.1.15,2013-05-02 18:14:00,
2013-05-02 13:19:00,70.6,57.8,30.10,SE,140,0.0,10.0,64,0.00,,,0.00,Wunderground v.1.15,2013-05-02 18:19:00,
2013-05-02 13:25:00,70.2,57.4,30.10,South,186,0.0,4.0,64,0.00,,,0.00,Wunderground v.1.15,2013-05-02 18:25:00,
2013-05-02 13:30:00,69.8,57.1,30.10,SW,221,4.0,5.0,64,0.00,,,0.00,Wunderground v.1.15,2013-05-02 18:30:00,
2013-05-02 13:35:00,69.0,57.6,30.10,SSW,204,3.0,5.0,67,0.00,,,0.00,Wunderground v.1.15,2013-05-02 18:35:00,
2013-05-02 13:40:00,68.9,57.9,30.10,East,90,1.0,5.0,68,0.00,,,0.00,Wunderground v.1.15,2013-05-02 18:40:00,
2013-05-02 13:45:00,69.1,57.7,30.10,SSW,193,2.0,7.0,67,0.00,,,0.00,Wunderground v.1.15,2013-05-02 18:45:00,
2013-05-02 13:50:00,69.1,58.1,30.10,South,171,0.0,7.0,68,0.00,,,0.00,Wunderground v.1.15,2013-05-02 18:50:00,
2013-05-02 13:55:00,69.2,58.2,30.10,SE,139,1.0,8.0,68,0.00,,,0.00,Wunderground v.1.15,2013-05-02 18:55:00,
2013-05-02 14:00:00,69.7,59.1,30.09,SE,139,6.0,8.0,69,0.00,,,0.00,Wunderground v.1.15,2013-05-02 19:00:00,
2013-05-02 14:05:00,70.1,58.2,30.09,SE,145,5.0,9.0,66,0.00,,,0.00,Wunderground v.1.15,2013-05-02 19:05:00,
2013-05-02 14:10:00,70.3,59.6,30.09,SE,124,2.0,9.0,69,0.00,,,0.00,Wunderground v.1.15,2013-05-02 19:10:00,
2013-05-02 14:15:00,70.7,58.4,30.09,SE,135,0.0,5.0,65,0.00,,,0.00,Wunderground v.1.15,2013-05-02 19:15:00,
2013-05-02 14:20:00,70.8,59.7,30.09,SE,142,0.0,5.0,68,0.00,,,0.00,Wunderground v.1.15,2013-05-02 19:20:00,
2013-05-02 14:25:00,70.6,58.3,30.09,SE,134,0.0,6.0,65,0.00,,,0.00,Wunderground v.1.15,2013-05-02 19:25:00,
2013-05-02 14:30:00,70.2,58.7,30.09,East,82,1.0,2.0,67,0.00,,,0.00,Wunderground v.1.15,2013-05-02 19:30:00,
2013-05-02 14:35:00,70.3,59.6,30.09,SE,134,3.0,5.0,69,0.00,,,0.00,Wunderground v.1.15,2013-05-02 19:35:00,
2013-05-02 14:40:00,70.4,58.9,30.09,West,273,0.0,2.0,67,0.00,,,0.00,Wunderground v.1.15,2013-05-02 19:40:00,
2013-05-02 14:45:00,70.1,58.6,30.08,SE,125,10.0,10.0,67,0.00,,,0.00,Wunderground v.1.15,2013-05-02 19:45:00,
2013-05-02 14:50:00,69.6,58.6,30.08,WSW,248,1.0,2.0,68,0.00,,,0.00,Wunderground v.1.15,2013-05-02 19:50:00,
2013-05-02 14:55:00,70.0,59.4,30.08,West,279,2.0,7.0,69,0.00,,,0.00,Wunderground v.1.15,2013-05-02 19:55:00,
2013-05-02 15:00:00,70.6,59.5,30.08,SE,127,7.0,7.0,68,0.00,,,0.00,Wunderground v.1.15,2013-05-02 20:00:00,
2013-05-02 15:05:00,70.7,59.2,30.08,SW,234,1.0,10.0,67,0.00,,,0.00,Wunderground v.1.15,2013-05-02 20:05:00,
2013-05-02 15:10:00,71.2,60.1,30.07,South,186,3.0,3.0,68,0.00,,,0.00,Wunderground v.1.15,2013-05-02 20:10:00,
2013-05-02 15:15:00,70.8,58.9,30.07,SE,128,1.0,7.0,66,0.00,,,0.00,Wunderground v.1.15,2013-05-02 20:15:00,
2013-05-02 15:21:00,70.3,58.8,30.07,SE,136,0.0,5.0,67,0.00,,,0.00,Wunderground v.1.15,2013-05-02 20:21:00,
2013-05-02 15:26:00,69.9,59.3,30.07,ESE,113,0.0,7.0,69,0.00,,,0.00,Wunderground v.1.15,2013-05-02 20:26:00,
2013-05-02 15:31:00,69.8,59.6,30.07,ESE,117,0.0,2.0,70,0.00,,,0.00,Wunderground v.1.15,2013-05-02 20:31:00,
2013-05-02 15:36:00,69.7,59.1,30.07,SE,128,0.0,6.0,69,0.00,,,0.00,Wunderground v.1.15,2013-05-02 20:36:00,
2013-05-02 15:41:00,69.3,59.1,30.07,ESE,103,3.0,3.0,70,0.00,,,0.00,Wunderground v.1.15,2013-05-02 20:41:00,
2013-05-02 15:46:00,68.1,58.3,30.07,SSE,159,0.0,5.0,71,0.00,,,0.00,Wunderground v.1.15,2013-05-02 20:46:00,
2013-05-02 15:51:00,67.3,58.3,30.07,South,179,1.0,3.0,73,0.00,,,0.00,Wunderground v.1.15,2013-05-02 20:51:00,
2013-05-02 15:56:00,66.8,58.2,30.07,South,176,0.0,5.0,74,0.00,,,0.00,Wunderground v.1.15,2013-05-02 20:56:00,
2013-05-02 16:01:00,66.9,58.3,30.07,SW,229,2.0,5.0,74,0.00,,,0.00,Wunderground v.1.15,2013-05-02 21:01:00,
2013-05-02 16:06:00,67.0,58.1,30.07,SSW,196,1.0,5.0,73,0.00,,,0.00,Wunderground v.1.15,2013-05-02 21:06:00,
2013-05-02 16:11:00,66.9,58.3,30.07,SE,140,5.0,5.0,74,0.00,,,0.00,Wunderground v.1.15,2013-05-02 21:11:00,
2013-05-02 16:16:00,66.6,58.4,30.07,ESE,123,1.0,5.0,75,0.00,,,0.00,Wunderground v.1.15,2013-05-02 21:16:00,
2013-05-02 16:21:00,66.3,58.1,30.06,WSW,257,1.0,3.0,75,0.00,,,0.00,Wunderground v.1.15,2013-05-02 21:21:00,
2013-05-02 16:26:00,66.0,57.8,30.06,South,178,0.0,6.0,75,0.00,,,0.00,Wunderground v.1.15,2013-05-02 21:26:00,
2013-05-02 16:31:00,65.7,57.6,30.06,South,176,2.0,2.0,75,0.00,,,0.00,Wunderground v.1.15,2013-05-02 21:31:00,
2013-05-02 16:36:00,65.5,57.7,30.06,West,272,0.0,5.0,76,0.00,,,0.00,Wunderground v.1.15,2013-05-02 21:36:00,
2013-05-02 16:41:00,65.4,57.3,30.06,SW,224,1.0,2.0,75,0.00,,,0.00,Wunderground v.1.15,2013-05-02 21:41:00,
2013-05-02 16:46:00,65.3,57.2,30.06,SSE,147,0.0,4.0,75,0.00,,,0.00,Wunderground v.1.15,2013-05-02 21:46:00,
2013-05-02 16:51:00,65.4,57.3,30.06,ESE,114,0.0,1.0,75,0.00,,,0.00,Wunderground v.1.15,2013-05-02 21:51:00,
2013-05-02 16:56:00,65.6,57.1,30.06,South,191,0.0,7.0,74,0.00,,,0.00,Wunderground v.1.15,2013-05-02 21:56:00,
2013-05-02 17:01:00,65.7,57.6,30.06,SSE,150,0.0,1.0,75,0.00,,,0.00,Wunderground v.1.15,2013-05-02 22:01:00,
2013-05-02 17:06:00,65.9,57.4,30.06,SE,146,0.0,3.0,74,0.00,,,0.00,Wunderground v.1.15,2013-05-02 22:06:00,
2013-05-02 17:11:00,66.3,57.8,30.06,SSE,158,4.0,4.0,74,0.00,,,0.00,Wunderground v.1.15,2013-05-02 22:11:00,
2013-05-02 17:16:00,66.7,56.6,30.06,SE,128,1.0,4.0,70,0.00,,,0.00,Wunderground v.1.15,2013-05-02 22:16:00,
2013-05-02 17:21:00,66.7,57.0,30.06,ESE,119,1.0,3.0,71,0.00,,,0.00,Wunderground v.1.15,2013-05-02 22:21:00,
2013-05-02 17:26:00,66.6,56.5,30.06,SE,142,0.0,4.0,70,0.00,,,0.00,Wunderground v.1.15,2013-05-02 22:26:00,
2013-05-02 17:31:00,66.9,56.8,30.05,SE,141,0.0,1.0,70,0.00,,,0.00,Wunderground v.1.15,2013-05-02 22:31:00,
2013-05-02 17:36:00,67.1,57.0,30.05,SW,231,1.0,3.0,70,0.00,,,0.00,Wunderground v.1.15,2013-05-02 22:36:00,
2013-05-02 17:41:00,67.3,57.2,30.05,East,80,0.0,0.0,70,0.00,,,0.00,Wunderground v.1.15,2013-05-02 22:41:00,
2013-05-02 17:46:00,67.4,57.3,30.05,SE,125,0.0,4.0,70,0.00,,,0.00,Wunderground v.1.15,2013-05-02 22:46:00,
2013-05-02 17:51:00,67.2,57.5,30.05,SE,125,0.0,1.0,71,0.00,,,0.00,Wunderground v.1.15,2013-05-02 22:51:00,
2013-05-02 17:56:00,67.0,57.3,30.05,SE,125,0.0,2.0,71,0.00,,,0.00,Wunderground v.1.15,2013-05-02 22:56:00,
2013-05-02 18:01:00,66.5,57.2,30.05,ESE,111,0.0,1.0,72,0.00,,,0.00,Wunderground v.1.15,2013-05-02 23:01:00,
2013-05-02 18:06:00,66.3,57.4,30.05,SE,137,0.0,3.0,73,0.00,,,0.00,Wunderground v.1.15,2013-05-02 23:06:00,
2013-05-02 18:11:00,66.1,57.2,30.05,SE,146,0.0,2.0,73,0.00,,,0.00,Wunderground v.1.15,2013-05-02 23:11:00,
2013-05-02 18:16:00,65.9,57.4,30.04,East,90,0.0,4.0,74,0.00,,,0.00,Wunderground v.1.15,2013-05-02 23:16:00,
2013-05-02 18:21:00,65.6,57.1,30.05,SE,131,2.0,2.0,74,0.00,,,0.00,Wunderground v.1.15,2013-05-02 23:21:00,
2013-05-02 18:26:00,65.4,56.9,30.05,SE,138,0.0,2.0,74,0.00,,,0.00,Wunderground v.1.15,2013-05-02 23:26:00,
2013-05-02 18:31:00,65.1,56.6,30.05,South,175,0.0,1.0,74,0.00,,,0.00,Wunderground v.1.15,2013-05-02 23:31:00,
2013-05-02 18:36:00,64.8,56.7,30.05,SE,130,0.0,5.0,75,0.00,,,0.00,Wunderground v.1.15,2013-05-02 23:36:00,
2013-05-02 18:41:00,64.5,56.0,30.04,SE,132,0.0,5.0,74,0.00,,,0.00,Wunderground v.1.15,2013-05-02 23:41:00,
2013-05-02 18:46:00,64.3,55.8,30.05,ESE,106,0.0,5.0,74,0.00,,,0.00,Wunderground v.1.15,2013-05-02 23:46:00,
2013-05-02 18:51:00,64.1,56.0,30.05,SE,140,0.0,2.0,75,0.00,,,0.00,Wunderground v.1.15,2013-05-02 23:51:00,
2013-05-02 18:56:00,63.9,55.8,30.05,SE,146,2.0,4.0,75,0.00,,,0.00,Wunderground v.1.15,2013-05-02 23:56:00,
2013-05-02 19:01:00,63.6,55.5,30.05,SE,132,2.0,2.0,75,0.00,,,0.00,Wunderground v.1.15,2013-05-03 00:01:00,
2013-05-02 19:07:00,63.2,55.5,30.05,ESE,111,0.0,5.0,76,0.00,,,0.00,Wunderground v.1.15,2013-05-03 00:07:00,
2013-05-02 19:12:00,63.0,55.7,30.05,South,182,0.0,1.0,77,0.00,,,0.00,Wunderground v.1.15,2013-05-03 00:12:00,
2013-05-02 19:17:00,62.8,55.8,30.05,SE,138,3.0,4.0,78,0.00,,,0.00,Wunderground v.1.15,2013-05-03 00:17:00,
2013-05-02 19:22:00,62.5,55.5,30.05,ESE,113,0.0,1.0,78,0.00,,,0.00,Wunderground v.1.15,2013-05-03 00:22:00,
2013-05-02 19:27:00,62.3,55.7,30.05,SSE,158,3.0,3.0,79,0.00,,,0.00,Wunderground v.1.15,2013-05-03 00:27:00,
2013-05-02 19:32:00,62.0,55.8,30.05,ESE,105,1.0,1.0,80,0.00,,,0.00,Wunderground v.1.15,2013-05-03 00:32:00,
2013-05-02 19:37:00,61.8,55.6,30.05,SSE,160,0.0,2.0,80,0.00,,,0.00,Wunderground v.1.15,2013-05-03 00:37:00,
2013-05-02 19:42:00,61.5,55.6,30.06,ESE,103,0.0,1.0,81,0.00,,,0.00,Wunderground v.1.15,2013-05-03 00:42:00,
2013-05-02 19:47:00,61.3,55.8,30.06,SE,137,0.0,3.0,82,0.00,,,0.00,Wunderground v.1.15,2013-05-03 00:47:00,
2013-05-02 19:52:00,61.0,55.8,30.06,ESE,115,2.0,2.0,83,0.00,,,0.00,Wunderground v.1.15,2013-05-03 00:52:00,
2013-05-02 19:57:00,60.8,55.6,30.06,SSE,152,0.0,2.0,83,0.00,,,0.00,Wunderground v.1.15,2013-05-03 00:57:00,
2013-05-02 20:02:00,60.5,55.6,30.06,ESE,104,1.0,2.0,84,0.00,,,0.00,Wunderground v.1.15,2013-05-03 01:02:00,
2013-05-02 20:07:00,60.3,55.4,30.06,ESE,106,3.0,4.0,84,0.00,,,0.00,Wunderground v.1.15,2013-05-03 01:07:00,
2013-05-02 20:12:00,60.1,55.6,30.06,SE,138,2.0,2.0,85,0.00,,,0.00,Wunderground v.1.15,2013-05-03 01:12:00,
2013-05-02 20:17:00,59.9,55.4,30.06,SE,134,1.0,4.0,85,0.00,,,0.00,Wunderground v.1.15,2013-05-03 01:17:00,
2013-05-02 20:22:00,59.7,55.5,30.06,SE,128,0.0,2.0,86,0.00,,,0.00,Wunderground v.1.15,2013-05-03 01:22:00,
2013-05-02 20:27:00,59.5,55.3,30.06,SE,129,0.0,3.0,86,0.00,,,0.00,Wunderground v.1.15,2013-05-03 01:27:00,
2013-05-02 20:32:00,59.3,55.1,30.07,ESE,107,1.0,3.0,86,0.00,,,0.00,Wunderground v.1.15,2013-05-03 01:32:00,
2013-05-02 20:37:00,59.1,55.2,30.07,ESE,117,0.0,4.0,87,0.00,,,0.00,Wunderground v.1.15,2013-05-03 01:37:00,
2013-05-02 20:42:00,58.9,55.0,30.07,SE,130,2.0,3.0,87,0.00,,,0.00,Wunderground v.1.15,2013-05-03 01:42:00,
2013-05-02 20:47:00,58.8,54.9,30.07,SE,127,0.0,3.0,87,0.00,,,0.00,Wunderground v.1.15,2013-05-03 01:47:00,
2013-05-02 20:52:00,58.6,54.7,30.07,SE,130,0.0,4.0,87,0.00,,,0.00,Wunderground v.1.15,2013-05-03 01:52:00,
2013-05-02 20:57:00,58.5,54.6,30.07,SE,132,1.0,4.0,87,0.00,,,0.00,Wunderground v.1.15,2013-05-03 01:57:00,
2013-05-02 21:02:00,58.4,54.9,30.07,SE,129,0.0,1.0,88,0.00,,,0.00,Wunderground v.1.15,2013-05-03 02:02:00,
2013-05-02 21:07:00,58.2,54.7,30.07,SSE,147,0.0,3.0,88,0.00,,,0.00,Wunderground v.1.15,2013-05-03 02:07:00,
2013-05-02 21:12:00,58.0,54.5,30.07,SE,144,0.0,3.0,88,0.00,,,0.00,Wunderground v.1.15,2013-05-03 02:12:00,
2013-05-02 21:17:00,57.9,54.4,30.07,SE,145,1.0,6.0,88,0.00,,,0.00,Wunderground v.1.15,2013-05-03 02:17:00,
2013-05-02 21:22:00,57.9,54.4,30.07,South,180,0.0,4.0,88,0.00,,,0.00,Wunderground v.1.15,2013-05-03 02:22:00,
2013-05-02 21:27:00,57.9,54.4,30.07,SSE,161,2.0,8.0,88,0.00,,,0.00,Wunderground v.1.15,2013-05-03 02:27:00,
2013-05-02 21:32:00,57.9,54.4,30.07,SE,140,0.0,2.0,88,0.00,,,0.00,Wunderground v.1.15,2013-05-03 02:32:00,
2013-05-02 21:37:00,57.8,54.3,30.07,ESE,121,0.0,3.0,88,0.00,,,0.00,Wunderground v.1.15,2013-05-03 02:37:00,
2013-05-02 21:42:00,57.9,54.1,30.07,SW,225,0.0,13.0,87,0.00,,,0.00,Wunderground v.1.15,2013-05-03 02:42:00,
2013-05-02 21:47:00,57.9,54.1,30.07,East,94,2.0,13.0,87,0.00,,,0.00,Wunderground v.1.15,2013-05-03 02:47:00,
2013-05-02 21:52:00,57.9,54.1,30.07,SE,138,1.0,3.0,87,0.00,,,0.00,Wunderground v.1.15,2013-05-03 02:52:00,
2013-05-02 21:57:00,57.9,53.7,30.07,SE,135,1.0,7.0,86,0.00,,,0.00,Wunderground v.1.15,2013-05-03 02:57:00,
2013-05-02 22:03:00,57.9,54.1,30.07,SE,137,2.0,3.0,87,0.00,,,0.00,Wunderground v.1.15,2013-05-03 03:03:00,
2013-05-02 22:08:00,57.9,54.1,30.07,SE,143,1.0,3.0,87,0.00,,,0.00,Wunderground v.1.15,2013-05-03 03:08:00,
2013-05-02 22:13:00,57.8,54.0,30.07,SE,136,0.0,3.0,87,0.00,,,0.00,Wunderground v.1.15,2013-05-03 03:13:00,
2013-05-02 22:18:00,57.8,54.0,30.06,SE,132,5.0,5.0,87,0.00,,,0.00,Wunderground v.1.15,2013-05-03 03:18:00,
2013-05-02 22:23:00,57.7,53.9,30.06,SE,139,0.0,2.0,87,0.00,,,0.00,Wunderground v.1.15,2013-05-03 03:23:00,
2013-05-02 22:28:00,57.6,53.8,30.06,SE,138,1.0,5.0,87,0.00,,,0.00,Wunderground v.1.15,2013-05-03 03:28:00,
2013-05-02 22:33:00,57.5,53.7,30.06,ESE,103,1.0,5.0,87,0.00,,,0.00,Wunderground v.1.15,2013-05-03 03:33:00,
2013-05-02 22:38:00,57.4,53.6,30.06,East,92,1.0,5.0,87,0.00,,,0.00,Wunderground v.1.15,2013-05-03 03:38:00,
2013-05-02 22:43:00,57.4,53.6,30.06,SSE,155,0.0,4.0,87,0.00,,,0.00,Wunderground v.1.15,2013-05-03 03:43:00,
2013-05-02 22:48:00,57.3,53.5,30.06,ESE,123,0.0,4.0,87,0.00,,,0.00,Wunderground v.1.15,2013-05-03 03:48:00,
2013-05-02 22:53:00,57.2,53.4,30.06,SE,136,0.0,4.0,87,0.00,,,0.00,Wunderground v.1.15,2013-05-03 03:53:00,
2013-05-02 22:58:00,57.1,53.3,30.06,SE,135,0.0,7.0,87,0.00,,,0.00,Wunderground v.1.15,2013-05-03 03:58:00,
2013-05-02 23:01:00,57.1,53.3,30.06,SE,146,0.0,5.0,87,0.00,,,0.00,Wunderground v.1.15,2013-05-03 04:01:00,
2013-05-02 23:06:00,57.1,53.3,30.06,SE,135,0.0,5.0,87,0.00,,,0.00,Wunderground v.1.15,2013-05-03 04:06:00,
2013-05-02 23:11:00,57.0,53.5,30.06,ESE,106,1.0,3.0,88,0.00,,,0.00,Wunderground v.1.15,2013-05-03 04:11:00,
2013-05-02 23:16:00,56.9,53.4,30.06,SE,142,1.0,7.0,88,0.00,,,0.00,Wunderground v.1.15,2013-05-03 04:16:00,
2013-05-02 23:21:00,56.8,53.3,30.06,SE,144,2.0,3.0,88,0.00,,,0.00,Wunderground v.1.15,2013-05-03 04:21:00,
2013-05-02 23:26:00,56.8,53.3,30.06,SSE,150,3.0,5.0,88,0.00,,,0.00,Wunderground v.1.15,2013-05-03 04:26:00,
2013-05-02 23:32:00,56.7,53.2,30.06,SE,140,0.0,2.0,88,0.00,,,0.00,Wunderground v.1.15,2013-05-03 04:32:00,
2013-05-02 23:37:00,56.6,53.1,30.06,SE,141,0.0,2.0,88,0.00,,,0.00,Wunderground v.1.15,2013-05-03 04:37:00,
2013-05-02 23:42:00,56.5,53.0,30.06,NNE,13,3.0,4.0,88,0.00,,,0.00,Wunderground v.1.15,2013-05-03 04:42:00,
2013-05-02 23:47:00,56.4,53.2,30.06,SSE,156,0.0,6.0,89,0.00,,,0.00,Wunderground v.1.15,2013-05-03 04:47:00,
2013-05-02 23:52:00,56.3,53.1,30.05,ENE,74,0.0,4.0,89,0.00,,,0.00,Wunderground v.1.15,2013-05-03 04:52:00,
2013-05-02 23:57:00,56.2,53.0,30.05,East,88,3.0,5.0,89,0.00,,,0.00,Wunderground v.1.15,2013-05-03 04:57:00,